Location: Al Mulaqqa?ah
(24.1833°N, 32.8833°E)
Time: 19:33:47
(UTC+00:00)

SL-08 RB Rocket - Pass Details

Date: 26 September 2021
Orbit: 647 x 683 km, 97.8° (Epoch: 25 October)

Event Time Altitude Azimuth Distance (km) Brightness Sun altitude
Rises 16:28:17 0° 157° (SSE) 2,953 6.8 -11.7°
Reaches altitude 10° 16:30:32 10° 152° (SSE) 2,042 5.9 -12.2°
Maximum altitude 16:34:51 52° 76° (ENE) 805 3.8 -13.2°
Drops below altitude 10° 16:39:10 10° 0° (N) 2,046 6.3 -14.2°
Sets 16:41:26 0° 356° (N) 2,960 7.2 -14.7°
